Retour au catalogue

STARLINK-30908

ActifCommunicationsVLEO
NORAD 58424·PAYLOAD·🇺🇸 United States

Lancé Nov 22, 2023 depuis Cape Canaveral Space Force Station

Loading…

Prochains Passages (prochaines 24 heures)

TLE

FraisSource: CelesTrak SupGP

Époque: Sep 15, 2026, 02:24 UTC

1 58424C 23180Y   26258.10048611 -.00018803  00000+0 -68093-3 0  2589
2 58424  43.0007  62.6685 0001426 272.6646 136.1102 15.27593306    14

Suivez STARLINK-30908 en temps réel avec AllMySat

Download on the App Store